World > North America > United States > Texas > Montopolis  

Montopolis, TX Hourly Weather Updates

Feedback E-mail the Weather

Quick Clicks

Montopolis, TX Weather Maps

°F °C°F °C
Montopolis Weather Map
UTC Time: 7/17/2024, 19:29
Your Time:

Montopolis, TX Regional Weather

Expires:202407172000;;204846
ASUS44 KSJT 171910
RWRSJT
WEST CENTRAL TEXAS REGIONAL WEATHER ROUNDUP
NATIONAL WEATHER SERVICE SAN ANGELO TX
200 PM CDT WED JUL 17 2024

NOTE: "FAIR" INDICATES FEW OR NO CLOUDS BELOW 12,000 FEET WITH NO
SIGNIFICANT WEATHER AND/OR OBSTRUCTIONS TO VISIBILITY.


TXZ145-158-159-173-191-192-194-205-207-220-223-172000-
CENTRAL AND SOUTH CENTRAL TEXAS
  
CITY           SKY/WX    TMP DP  RH WIND       PRES   REMARKS
AUSTIN/BERGSTM PTSUNNY   95  74  50 S10G17    29.99F TC  35           
WACO           PTSUNNY   94  71  47 S13       29.97F TC  34           
HILLSBORO      CLOUDY    92  75  57 NW10      30.00S TC  33           
TEMPLE         PTSUNNY   95  70  44 VRB3      30.00F TC  35           
KILLEEN-GRAY   PTSUNNY   94  69  44 SE7       30.00F TC  34           
FORT HOOD      CLOUDY    95  71  45 S3        29.99F TC  35           
GEORGETOWN     PTSUNNY   94  65  38 S6        30.01F TC  34           
LAGO VISTA     NOT AVBL                                               
SAN MARCOS     MOSUNNY   95  70  44 SE9       30.01F TC  35           
NEW BRAUNFELS  MOSUNNY   95  72  46 CALM      29.99F TC  35           
RANDOLPH AFB   PTSUNNY   93  69  45 SE6       29.98F TC  34           
SAN ANTONIO    PTSUNNY   93  69  45 VRB7      30.01F TC  34           
STINSON        MOSUNNY   92  70  48 S6        29.98F TC  33           
PLEASANTON     NOT AVBL                                               
LA GRANGE      MOSUNNY   93  76  56 SE5       29.98F TC  34           
GIDDINGS       MOSUNNY   94  71  47 SW9       30.04F TC  34           
$$


SKY/WX - Weather  TMP - Temperature  DP - Dew Point  RH - Humidity
WIND - Wind Direction/Speed PRES - Barometric Pressure VSB - Visibility
WCI - Wind Chill Index E13G22 Wind - East Wind 13 mph/Gusts of 22 mph

Trending Headlines

Trending Entertainment Headlines

Montopolis Radar Loop

Use the map search tool if you want to place a location marker on the radar map...

Montopolis Quick Facts

National Two Day Weather Forecast


E-mail the Montopolis Weather Forecast

Voice your opinion or tell us about page issues...